Location: Boncourt
(49.6160°N, 3.9448°E)
Time: 17:52:44
(UTC+00:00)

USA 215 - Pass Details

Date: 09 February 2023
Orbit: 1097 x 1110 km, 123.0° (Epoch: 24 March)

Event Time Altitude Azimuth Distance (km) Brightness Sun altitude
Exits shadow 19:09:53 - 157° (SSE) 3,206 5.4 -22.6°
Reaches altitude 10° 19:10:36 10° 160° (SSE) 2,954 5.3 -22.7°
Maximum altitude 19:16:37 39° 227° (SW) 1,603 4.4 -23.7°
Drops below altitude 10° 19:22:39 10° 295° (WNW) 2,960 6.5 -24.6°
Sets 19:25:21 0° 303° (WNW) 3,919 7.2 -25.1°
